Weather in Bogatoe

Russia / Samara Oblast     53°03′35″N   51°20′23″E
temp.,
°C
wind,
m/s
gust,
m/s
humid.,
%
clouds,
%
prec.,
mm/h
press.,
hPa
HPBL,
m
26 june, sun
sun2601:00+16nnw36900 0.0 1012110
04:00+14nnw33900 0.0 101247
07:00+18nnw46770 0.0 1013267
10:00+21nnw68580 0.0 1013919
13:00+22n89490 0.0 10141870
16:00+20n89501 0.0 10151828
19:00+18n58620 0.0 1016989
22:00+13n38790 0.0 1018150
27 june, mon
mon2701:00+11nnw35800 0.0 101874
04:00+10nnw33810 0.0 101943
07:00+14nnw35700 0.0 1019221
10:00+19nnw34504 0.0 1019986
13:00+22nw45440 0.0 10181353
16:00+24wnw46475 0.0 10161360
19:00+22wsw48655 0.0 1014353
22:00+17w41088100 1.3 1013193
28 june, tue
tue2801:00+17nw379711 2.3 1012180
04:00+14n38950 2.3 1013189
07:00+15nne57840 0.0 1014400
10:00+16nne78613 0.0 10151022
13:00+17n895115 0.0 10161824
16:00+16n910499 0.0 10171935
19:00+14nne696462 0.0 10181533
22:00+9n36755 0.0 1019108
29 june, wed
wed2901:00+7nnw36790 0.0 1019106
04:00+7nw34795 0.0 101960
07:00+11nw59725 0.0 1019405
10:00+15n68565 0.0 10181164
13:00+17n6756100 0.0 10181630
16:00+17nne4759100 0.0 10181471
19:00+17n3670100 0.1 1017407
22:00+13nnw22825 0.1 101822
30 june, thu
thu3001:00+11wnw35880 0.0 101767
04:00+9wnw349083 0.0 101648
07:00+13wnw4775100 0.0 1015245
10:00+15nw4766100 0.0 1014420
13:00+20nw694795 0.0 10122002
16:00+18nw61059100 0.0 1011634
19:00+17nw6116481 0.0 1010712
22:00+12nw51190100 0.5 1010255